TimeMDT,TemperatureF,Dew PointF,Humidity,Sea Level PressureIn,VisibilityMPH,Wind Direction,Wind SpeedMPH,Gust SpeedMPH,PrecipitationIn,Events,Conditions,WindDirDegrees,DateUTC
12:53 AM,66.9,55.0,66,29.79,10.0,SE,5.8,-,N/A,,Clear,140,2013-07-23 06:53:00
1:53 AM,66.0,57.0,73,29.78,10.0,South,12.7,-,N/A,,Clear,190,2013-07-23 07:53:00
2:53 AM,68.0,57.0,68,29.75,10.0,SW,8.1,-,N/A,,Clear,220,2013-07-23 08:53:00
3:53 AM,73.9,50.0,43,29.73,10.0,SSW,13.8,-,N/A,,Clear,210,2013-07-23 09:53:00
4:25 AM,64.4,55.4,73,29.99,10.0,ENE,11.5,23.0,N/A,,Clear,70,2013-07-23 10:25:00
4:53 AM,61.0,57.0,87,29.81,10.0,East,10.4,-,N/A,,Clear,90,2013-07-23 10:53:00
5:36 AM,59.0,57.2,94,30.02,8.0,East,9.2,-,N/A,,Scattered Clouds,90,2013-07-23 11:36:00
5:45 AM,60.8,57.2,88,30.03,7.0,East,11.5,-,N/A,,Mostly Cloudy,100,2013-07-23 11:45:00
5:53 AM,60.1,57.9,93,29.83,7.0,ESE,12.7,-,N/A,,Mostly Cloudy,110,2013-07-23 11:53:00
6:53 AM,61.0,57.9,90,29.85,10.0,SE,15.0,-,N/A,,Overcast,130,2013-07-23 12:53:00
7:38 AM,62.6,57.2,82,30.04,10.0,SE,16.1,-,N/A,,Scattered Clouds,130,2013-07-23 13:38:00
7:53 AM,64.0,57.9,80,29.89,10.0,SE,11.5,-,N/A,,Partly Cloudy,130,2013-07-23 13:53:00
8:18 AM,64.4,57.2,77,30.08,10.0,East,13.8,-,N/A,,Mostly Cloudy,90,2013-07-23 14:18:00
8:53 AM,64.9,57.9,78,29.92,10.0,ESE,13.8,-,N/A,,Overcast,110,2013-07-23 14:53:00
9:30 AM,68.0,59.0,73,30.10,10.0,ESE,13.8,19.6,N/A,,Scattered Clouds,110,2013-07-23 15:30:00
9:53 AM,69.1,57.9,68,29.94,10.0,East,11.5,-,N/A,,Partly Cloudy,100,2013-07-23 15:53:00
10:53 AM,72.0,57.9,61,29.96,10.0,ESE,9.2,-,N/A,,Clear,120,2013-07-23 16:53:00
11:53 AM,73.9,57.9,57,29.96,10.0,ESE,6.9,-,N/A,,Clear,120,2013-07-23 17:53:00
12:53 PM,78.1,57.9,50,29.94,10.0,ENE,10.4,16.1,N/A,,Clear,70,2013-07-23 18:53:00
1:53 PM,81.0,57.9,45,29.93,10.0,SSE,9.2,17.3,N/A,,Clear,150,2013-07-23 19:53:00
2:53 PM,82.9,55.9,39,29.89,10.0,SE,15.0,21.9,N/A,,Clear,140,2013-07-23 20:53:00
3:53 PM,84.0,57.0,40,29.88,10.0,East,12.7,18.4,N/A,,Clear,80,2013-07-23 21:53:00
4:53 PM,82.9,55.9,39,29.89,7.0,ESE,11.5,21.9,N/A,,Clear,110,2013-07-23 22:53:00
5:53 PM,82.0,55.0,39,29.89,10.0,East,16.1,21.9,N/A,,Clear,90,2013-07-23 23:53:00
6:53 PM,80.1,53.1,39,29.91,10.0,East,13.8,-,N/A,,Clear,90,2013-07-24 00:53:00
7:53 PM,75.9,54.0,46,29.95,10.0,NE,11.5,-,N/A,,Clear,50,2013-07-24 01:53:00
8:53 PM,72.0,54.0,53,29.98,10.0,ENE,8.1,-,N/A,,Clear,70,2013-07-24 02:53:00
9:53 PM,69.1,54.0,58,30.01,10.0,East,6.9,-,N/A,,Clear,100,2013-07-24 03:53:00
10:53 PM,69.1,60.1,73,30.02,10.0,ESE,11.5,-,N/A,,Clear,110,2013-07-24 04:53:00
11:53 PM,66.9,61.0,81,30.01,10.0,SE,12.7,-,N/A,,Clear,130,2013-07-24 05:53:00